Luxeuil, France

5:40 PM CEST on May 28, 2017 (GMT +0200)
Saint Sauveur Air Base

Weather History for LFSX - March, 2013

Change the Weather History Date:

Friday, March 29, 2013

  Actual Average Record
Temperature  
Mean Temperature 33 °F -  
Max Temperature 42 °F 58 °F 69 °F (2012)
Min Temperature 24 °F 38 °F 24 °F (2004)
Degree Days  
Heating Degree Days 32    
Moisture  
Dew Point 27 °F    
Average Humidity 75    
Maximum Humidity 93    
Minimum Humidity 42    
Precipitation  
Precipitation 0.00 in - - ()
Sea Level Pressure  
Sea Level Pressure 29.73 in    
Wind  
Wind Speed 2 mph ()    
Max Wind Speed 10 mph    
Max Gust Speed -    
Visibility 2.4 miles    
Events Rain    
Averages and records for this station are not official NWS values.
T = Trace of Precipitation, MM = Missing Value Source: Averaged Metar Reports

Daily Weather History Graph

Daily Weather History Graph

Search for Another Location

Airport or City:

Trip Planner

Search our weather history database for the weather conditions in past years. The results will help you decide how hot, cold, wet, or windy it might be!

Date:

Astronomy

Mar. 29, 2013 Rise Set
Actual Time 6:19 AM CET 7:00 PM CET
Civil Twilight 5:48 AM CET 7:31 PM CET
Nautical Twilight 5:11 AM CET 8:08 PM CET
Astronomical Twilight 4:32 AM CET 8:47 PM CET
Moon 9:56 PM CET (3/29) 7:05 AM CET (3/29)
Length of Visible Light 13h 43m
Length of Day
12h 41m
Waning Gibbous, 95% of the Moon is Illuminated
Mar 29
Waning Gibbous
Apr 3
Last Quarter
Apr 10
New
Apr 18
First Quarter
Apr 25
Full

Hourly Weather History & Observations

Time (CET) Temp. Windchill Dew Point Humidity Pressure Visibility Wind Dir Wind Speed Gust Speed Precip Events Conditions
12:00 AM 32.0 °F 28.7 °F 24.8 °F 75% 29.80 in - WNW 3.5 mph - N/A   Mist
12:30 AM 32.0 °F - 24.8 °F 75% 29.80 in - West 1.2 mph - N/A   Mist
1:00 AM 30.2 °F 26.7 °F 24.8 °F 80% 29.80 in - West 3.5 mph - N/A   Mist
1:30 AM 30.2 °F 26.7 °F 24.8 °F 80% 29.80 in - Variable 3.5 mph - N/A   Mist
2:00 AM 28.4 °F - 24.8 °F 86% 29.80 in 1.1 mi SSE 1.2 mph - N/A   Mist
2:30 AM 28.4 °F - 24.8 °F 86% 29.80 in 1.6 mi Calm Calm - N/A   Mist
3:00 AM 28.4 °F - 24.8 °F 86% 29.80 in 1.2 mi NE 2.3 mph - N/A   Mist
3:30 AM 28.4 °F 23.3 °F 24.8 °F 86% 29.80 in 1.2 mi East 4.6 mph - N/A   Mist
4:00 AM 28.4 °F - 24.8 °F 86% 29.80 in 1.0 mi Variable 2.3 mph - N/A   Mist
4:30 AM 28.4 °F - 24.8 °F 86% 29.80 in 1.1 mi NE 2.3 mph - N/A   Mist
5:00 AM 28.4 °F - 24.8 °F 86% 29.80 in 1.1 mi Variable 1.2 mph - N/A   Mist
5:30 AM 26.6 °F - 23.0 °F 86% 29.80 in 0.7 mi ESE 2.3 mph - N/A   Mist
6:00 AM 26.6 °F - 23.0 °F 86% 29.77 in 0.7 mi Calm Calm - N/A   Mist
6:30 AM 24.8 °F - 21.2 °F 86% 29.77 in 0.8 mi Calm Calm - N/A   Mist
7:00 AM 24.8 °F - 21.2 °F 86% 29.77 in 0.7 mi Calm Calm - N/A   Mist
7:30 AM 26.6 °F - 24.8 °F 93% 29.77 in 1.2 mi East 2.3 mph - N/A   Mist
8:00 AM 28.4 °F - 26.6 °F 93% 29.77 in 1.6 mi ENE 2.3 mph - N/A   Mist
8:30 AM 30.2 °F - 26.6 °F 86% 29.77 in 1.9 mi ESE 2.3 mph - N/A   Mist
9:30 AM 37.4 °F - 28.4 °F 70% 29.77 in - Variable 1.2 mph - N/A   Mist
10:00 AM 39.2 °F - 28.4 °F 65% 29.77 in 3.1 mi Variable 1.2 mph - N/A   Mist
10:30 AM 41.0 °F - 24.8 °F 53% 29.77 in 4.3 mi Variable 2.3 mph - N/A   Unknown
11:00 AM 41.0 °F - 23.0 °F 49% 29.74 in 4.3 mi Calm Calm - N/A   Unknown
11:30 AM 41.0 °F - 19.4 °F 42% 29.74 in 5.0 mi Variable 2.3 mph - N/A   Unknown
12:00 PM 42.8 °F 41.1 °F 21.2 °F 42% 29.74 in 5.6 mi South 3.5 mph - N/A   Unknown
12:30 PM 41.0 °F 38.0 °F 23.0 °F 49% 29.74 in 5.0 mi SSW 4.6 mph - N/A   Unknown
1:00 PM 41.0 °F - 24.8 °F 53% 29.71 in 4.3 mi Variable 2.3 mph - N/A   Mostly Cloudy
1:30 PM 42.8 °F - 24.8 °F 49% 29.71 in 4.3 mi Variable 2.3 mph - N/A   Unknown
2:00 PM 42.8 °F - 24.8 °F 49% 29.71 in 4.3 mi Variable 1.2 mph - N/A   Unknown
2:30 PM 42.8 °F - 26.6 °F 53% 29.68 in 4.3 mi Variable 2.3 mph - N/A   Overcast
3:00 PM 42.8 °F - 24.8 °F 49% 29.68 in 4.3 mi Variable 2.3 mph - N/A   Overcast
3:30 PM 42.8 °F 41.1 °F 26.6 °F 53% 29.68 in 4.3 mi Variable 3.5 mph - N/A   Overcast
4:00 PM 42.8 °F 40.1 °F 28.4 °F 57% 29.68 in 3.7 mi WSW 4.6 mph - N/A   Mostly Cloudy
4:30 PM 41.0 °F 34.7 °F 30.2 °F 65% 29.68 in 3.7 mi South 10.4 mph - N/A   Overcast
5:00 PM 41.0 °F 35.8 °F 30.2 °F 65% 29.68 in 3.7 mi South 8.1 mph - N/A   Mostly Cloudy
5:30 PM 39.2 °F 33.0 °F 30.2 °F 70% 29.68 in 3.1 mi SSW 9.2 mph - N/A   Overcast
6:00 PM 39.2 °F 35.0 °F 32.0 °F 75% 29.68 in - SSE 5.8 mph - N/A Rain Light Rain
6:30 PM 37.4 °F 33.8 °F 32.0 °F 81% 29.68 in - SSE 4.6 mph - N/A Rain Light Rain
7:00 PM 37.4 °F 34.9 °F 33.8 °F 87% 29.68 in 1.8 mi SE 3.5 mph - N/A   Light Drizzle
7:30 PM 37.4 °F 34.9 °F 33.8 °F 87% 29.68 in 1.7 mi SE 3.5 mph - N/A Rain Light Rain
8:00 PM 37.4 °F - 33.8 °F 87% 29.68 in 1.5 mi ESE 2.3 mph - N/A Rain Light Rain
8:30 PM 37.4 °F 34.9 °F 33.8 °F 87% 29.68 in 1.7 mi East 3.5 mph - N/A Rain Light Rain
9:00 PM 37.4 °F 34.9 °F 33.8 °F 87% 29.68 in 1.4 mi East 3.5 mph - N/A Rain Light Rain
9:30 PM 37.4 °F - 33.8 °F 87% 29.68 in 1.3 mi ENE 2.3 mph - N/A Rain Light Rain
10:00 PM 35.6 °F 32.8 °F 33.8 °F 93% 29.65 in 1.1 mi East 3.5 mph - N/A   Light Drizzle
10:30 PM 35.6 °F - 33.8 °F 93% 29.65 in 1.3 mi Variable 2.3 mph - N/A   Light Drizzle
11:00 PM 35.6 °F - 33.8 °F 93% 29.65 in 1.2 mi Variable 2.3 mph - N/A   Overcast
11:30 PM 35.6 °F - 33.8 °F 93% 29.65 in 1.1 mi Calm Calm - N/A Rain Light Rain